Time,TemperatureF,DewpointF,PressureIn,WindDirection,WindDirectionDegrees,WindSpeedMPH,WindSpeedGustMPH,Humidity,HourlyPrecipIn,Conditions,Clouds,dailyrainin,SoftwareType,DateUTC
2013-05-05 00:02:00,47.1,45.5,30.03,SSW,202,0.0,0.0,94,0.00,,,0.00,VWS V14.01,2013-05-05 05:02:00,
2013-05-05 00:07:00,47.1,45.8,30.03,SSW,202,0.0,0.0,95,0.00,,,0.00,VWS V14.01,2013-05-05 05:07:00,
2013-05-05 00:12:00,47.1,45.8,30.03,SSW,202,0.0,0.0,95,0.00,,,0.00,VWS V14.01,2013-05-05 05:12:00,
2013-05-05 00:17:00,47.1,45.8,30.03,SSW,202,0.0,0.0,95,0.00,,,0.00,VWS V14.01,2013-05-05 05:17:00,
2013-05-05 00:22:00,47.3,45.9,30.03,SSW,202,0.0,0.0,95,0.00,,,0.00,VWS V14.01,2013-05-05 05:22:00,
2013-05-05 10:36:00,58.6,48.5,30.00,WNW,292,0.0,0.0,69,0.00,,,0.00,VWS V14.01,2013-05-05 15:36:00,
2013-05-05 10:41:00,58.8,49.1,30.00,NW,315,0.0,0.0,70,0.00,,,0.00,VWS V14.01,2013-05-05 15:41:00,
2013-05-05 10:46:00,58.6,48.9,30.00,NW,315,5.4,5.4,70,0.00,,,0.00,VWS V14.01,2013-05-05 15:46:00,
2013-05-05 10:51:00,58.5,48.7,30.00,WNW,292,0.0,3.6,70,0.00,,,0.00,VWS V14.01,2013-05-05 15:51:00,
2013-05-05 10:56:00,59.0,49.6,30.00,NW,315,0.0,0.0,71,0.00,,,0.00,VWS V14.01,2013-05-05 15:56:00,
2013-05-05 11:01:00,59.4,50.0,30.00,NW,315,4.9,4.9,71,0.00,,,0.00,VWS V14.01,2013-05-05 16:01:00,
2013-05-05 11:06:00,59.4,47.2,30.00,WNW,292,0.0,2.7,64,0.00,,,0.00,VWS V14.01,2013-05-05 16:06:00,
2013-05-05 11:10:00,60.1,47.5,30.00,NW,315,0.0,0.0,63,0.00,,,0.00,VWS V14.01,2013-05-05 16:10:00,
2013-05-05 11:15:00,60.8,47.7,30.00,NW,315,0.0,3.1,62,0.00,,,0.00,VWS V14.01,2013-05-05 16:15:00,
2013-05-05 11:20:00,61.7,47.2,30.00,NW,315,0.0,2.2,59,0.00,,,0.00,VWS V14.01,2013-05-05 16:20:00,
2013-05-05 11:25:00,61.7,45.4,30.00,NW,315,4.0,5.8,55,0.00,,,0.00,VWS V14.01,2013-05-05 16:25:00,
2013-05-05 11:30:00,61.9,45.5,30.00,NW,315,2.7,3.6,55,0.00,,,0.00,VWS V14.01,2013-05-05 16:30:00,
2013-05-05 11:35:00,62.2,44.9,30.00,ENE,68,2.7,2.7,53,0.00,,,0.00,VWS V14.01,2013-05-05 16:35:00,
2013-05-05 11:40:00,61.9,44.1,30.00,NW,315,3.6,3.6,52,0.00,,,0.00,VWS V14.01,2013-05-05 16:40:00,
2013-05-05 11:45:00,62.6,45.7,30.00,NNW,338,3.1,3.6,54,0.00,,,0.00,VWS V14.01,2013-05-05 16:45:00,
2013-05-05 11:50:00,62.2,45.4,30.00,NNW,338,3.1,5.4,54,0.00,,,0.00,VWS V14.01,2013-05-05 16:50:00,
2013-05-05 11:55:00,62.8,46.9,30.00,North,0,4.9,4.9,56,0.00,,,0.00,VWS V14.01,2013-05-05 16:55:00,
2013-05-05 12:00:00,63.3,47.4,30.00,NNW,338,2.7,5.8,56,0.00,,,0.00,VWS V14.01,2013-05-05 17:00:00,
2013-05-05 12:05:00,62.8,45.9,29.97,NE,45,3.1,4.9,54,0.00,,,0.00,VWS V14.01,2013-05-05 17:05:00,
2013-05-05 12:10:00,62.2,44.9,29.97,NNW,338,3.1,7.6,53,0.00,,,0.00,VWS V14.01,2013-05-05 17:10:00,
2013-05-05 12:15:00,62.2,45.9,29.97,NW,315,2.7,3.1,55,0.00,,,0.00,VWS V14.01,2013-05-05 17:15:00,
2013-05-05 12:20:00,62.6,46.7,29.97,North,0,0.0,0.0,56,0.00,,,0.00,VWS V14.01,2013-05-05 17:20:00,
2013-05-05 12:25:00,62.8,45.9,29.97,North,0,3.6,4.5,54,0.00,,,0.00,VWS V14.01,2013-05-05 17:25:00,
2013-05-05 12:30:00,63.0,46.6,29.97,NNW,338,4.0,4.0,55,0.00,,,0.00,VWS V14.01,2013-05-05 17:30:00,
2013-05-05 12:35:00,63.7,46.7,29.97,North,0,4.9,4.9,54,0.00,,,0.00,VWS V14.01,2013-05-05 17:35:00,
2013-05-05 12:40:00,63.5,46.6,29.97,NNW,338,2.7,8.1,54,0.00,,,0.00,VWS V14.01,2013-05-05 17:40:00,
2013-05-05 12:45:00,63.9,47.4,29.97,North,0,4.0,5.4,55,0.00,,,0.00,VWS V14.01,2013-05-05 17:45:00,
2013-05-05 12:50:00,64.2,47.7,29.97,NNW,338,0.0,0.0,55,0.00,,,0.00,VWS V14.01,2013-05-05 17:50:00,
2013-05-05 12:55:00,64.2,47.7,29.97,NW,315,0.0,0.0,55,0.00,,,0.00,VWS V14.01,2013-05-05 17:55:00,
2013-05-05 13:00:00,64.6,47.1,29.97,ENE,68,4.9,4.9,53,0.00,,,0.00,VWS V14.01,2013-05-05 18:00:00,
2013-05-05 13:05:00,65.3,47.8,29.97,NNW,338,3.6,5.8,53,0.00,,,0.00,VWS V14.01,2013-05-05 18:05:00,
2013-05-05 13:10:00,65.3,47.2,29.97,ENE,68,2.2,5.4,52,0.00,,,0.00,VWS V14.01,2013-05-05 18:10:00,
2013-05-05 13:15:00,65.8,47.2,29.97,NE,45,6.3,6.3,51,0.00,,,0.00,VWS V14.01,2013-05-05 18:15:00,
2013-05-05 13:20:00,66.0,48.4,29.97,North,0,4.0,4.9,53,0.00,,,0.00,VWS V14.01,2013-05-05 18:20:00,
2013-05-05 13:25:00,66.0,47.4,29.97,WNW,292,3.1,3.1,51,0.00,,,0.00,VWS V14.01,2013-05-05 18:25:00,
2013-05-05 13:30:00,66.2,48.1,29.97,WNW,292,3.1,3.1,52,0.00,,,0.00,VWS V14.01,2013-05-05 18:30:00,
2013-05-05 13:35:00,66.9,47.7,29.97,NNE,22,0.0,0.0,50,0.00,,,0.00,VWS V14.01,2013-05-05 18:35:00,
2013-05-05 13:40:00,66.2,46.5,29.97,NNW,338,0.0,10.1,49,0.00,,,0.00,VWS V14.01,2013-05-05 18:40:00,
2013-05-05 13:45:00,66.4,48.2,29.97,WNW,292,3.6,3.6,52,0.00,,,0.00,VWS V14.01,2013-05-05 18:45:00,
2013-05-05 13:50:00,66.7,48.6,29.94,NNW,338,0.0,2.2,52,0.00,,,0.00,VWS V14.01,2013-05-05 18:50:00,
2013-05-05 13:55:00,66.9,48.7,29.94,NNW,338,0.0,4.0,52,0.00,,,0.00,VWS V14.01,2013-05-05 18:55:00,
2013-05-05 14:00:00,66.6,48.4,29.94,NW,315,3.1,5.4,52,0.00,,,0.00,VWS V14.01,2013-05-05 19:00:00,
2013-05-05 14:05:00,66.9,49.2,29.94,NNE,22,5.4,6.7,53,0.00,,,0.00,VWS V14.01,2013-05-05 19:05:00,
2013-05-05 14:10:00,66.9,48.2,29.94,WNW,292,3.1,5.4,51,0.00,,,0.00,VWS V14.01,2013-05-05 19:10:00,
2013-05-05 14:15:00,66.9,47.7,29.94,NNE,22,0.0,0.0,50,0.00,,,0.00,VWS V14.01,2013-05-05 19:15:00,
2013-05-05 14:20:00,66.7,48.6,29.94,North,0,3.1,3.6,52,0.00,,,0.00,VWS V14.01,2013-05-05 19:20:00,
2013-05-05 14:25:00,67.1,48.9,29.94,NNW,338,0.0,0.0,52,0.00,,,0.00,VWS V14.01,2013-05-05 19:25:00,
2013-05-05 14:30:00,67.1,48.4,29.94,NW,315,0.0,0.0,51,0.00,,,0.00,VWS V14.01,2013-05-05 19:30:00,
2013-05-05 14:35:00,67.1,46.8,29.94,NW,315,3.1,3.1,48,0.00,,,0.00,VWS V14.01,2013-05-05 19:35:00,
2013-05-05 14:40:00,67.5,47.7,29.94,NNE,22,3.6,6.3,49,0.00,,,0.00,VWS V14.01,2013-05-05 19:40:00,
2013-05-05 14:45:00,68.2,46.6,29.94,ENE,68,0.0,0.0,46,0.00,,,0.00,VWS V14.01,2013-05-05 19:45:00,
2013-05-05 14:50:00,68.7,47.1,29.94,NE,45,4.0,4.0,46,0.00,,,0.00,VWS V14.01,2013-05-05 19:50:00,
2013-05-05 14:55:00,69.1,47.5,29.94,NNE,22,2.7,5.4,46,0.00,,,0.00,VWS V14.01,2013-05-05 19:55:00,
2013-05-05 15:00:00,69.6,47.4,29.94,NE,45,2.7,8.1,45,0.00,,,0.00,VWS V14.01,2013-05-05 20:00:00,
2013-05-05 15:05:00,70.0,48.3,29.94,North,0,7.2,7.2,46,0.00,,,0.00,VWS V14.01,2013-05-05 20:05:00,
2013-05-05 15:10:00,70.0,47.1,29.94,NNE,22,4.9,4.9,44,0.00,,,0.00,VWS V14.01,2013-05-05 20:10:00,
2013-05-05 15:15:00,70.3,47.4,29.94,NE,45,2.7,2.7,44,0.00,,,0.00,VWS V14.01,2013-05-05 20:15:00,
2013-05-05 15:20:00,70.3,48.0,29.94,North,0,0.0,3.1,45,0.00,,,0.00,VWS V14.01,2013-05-05 20:20:00,
2013-05-05 15:25:00,70.5,48.8,29.94,ENE,68,4.0,4.0,46,0.00,,,0.00,VWS V14.01,2013-05-05 20:25:00,
2013-05-05 15:30:00,70.5,47.0,29.94,NE,45,2.2,2.2,43,0.00,,,0.00,VWS V14.01,2013-05-05 20:30:00,
2013-05-05 15:34:00,70.5,47.0,29.94,ENE,68,0.0,0.0,43,0.00,,,0.00,VWS V14.01,2013-05-05 20:34:00,
2013-05-05 16:34:00,70.5,47.0,29.94,ENE,68,0.0,0.0,43,0.00,,,0.00,VWS V14.01,2013-05-05 21:34:00,
2013-05-05 16:39:00,69.4,48.9,29.94,NNW,338,0.0,0.0,48,0.00,,,0.00,VWS V14.01,2013-05-05 21:39:00,
2013-05-05 16:44:00,69.4,48.9,29.94,NNW,338,0.0,0.0,48,0.00,,,0.00,VWS V14.01,2013-05-05 21:44:00,
2013-05-05 16:49:00,69.1,48.6,29.94,North,0,0.0,3.1,48,0.00,,,0.00,VWS V14.01,2013-05-05 21:49:00,
2013-05-05 16:54:00,69.4,48.9,29.91,North,0,2.7,2.7,48,0.00,,,0.00,VWS V14.01,2013-05-05 21:54:00,
2013-05-05 16:59:00,69.4,48.9,29.91,ENE,68,0.0,0.0,48,0.00,,,0.00,VWS V14.01,2013-05-05 21:59:00,
2013-05-05 17:04:00,69.6,48.0,29.91,NNW,338,5.4,5.4,46,0.00,,,0.00,VWS V14.01,2013-05-05 22:04:00,
2013-05-05 17:09:00,68.7,46.0,29.91,ENE,68,5.4,8.1,44,0.00,,,0.00,VWS V14.01,2013-05-05 22:09:00,
2013-05-05 17:14:00,68.4,45.6,29.91,NNE,22,4.0,4.0,44,0.00,,,0.00,VWS V14.01,2013-05-05 22:14:00,
2013-05-05 17:19:00,68.0,45.9,29.91,NNW,338,2.7,2.7,45,0.00,,,0.00,VWS V14.01,2013-05-05 22:19:00,
2013-05-05 18:02:00,65.3,42.8,29.94,North,0,2.2,2.2,44,0.00,,,0.00,VWS V14.01,2013-05-05 23:02:00,
2013-05-05 18:07:00,65.5,43.0,29.94,NE,45,0.0,0.0,44,0.00,,,0.00,VWS V14.01,2013-05-05 23:07:00,
2013-05-05 18:12:00,65.5,43.6,29.94,WNW,292,0.0,0.0,45,0.00,,,0.00,VWS V14.01,2013-05-05 23:12:00,
2013-05-05 18:17:00,65.5,43.6,29.94,WNW,292,0.0,0.0,45,0.00,,,0.00,VWS V14.01,2013-05-05 23:17:00,
2013-05-05 18:22:00,65.5,44.2,29.91,WNW,292,0.0,0.0,46,0.00,,,0.00,VWS V14.01,2013-05-05 23:22:00,
2013-05-05 18:27:00,65.3,44.0,29.91,WNW,292,0.0,0.0,46,0.00,,,0.00,VWS V14.01,2013-05-05 23:27:00,
2013-05-05 18:32:00,65.1,44.4,29.91,WNW,292,0.0,0.0,47,0.00,,,0.00,VWS V14.01,2013-05-05 23:32:00,
2013-05-05 19:35:00,64.9,44.2,29.91,WNW,292,0.0,0.0,47,0.00,,,0.00,VWS V14.01,2013-05-06 00:35:00,
2013-05-05 19:40:00,63.3,47.4,29.94,WNW,292,0.0,0.0,56,0.00,,,0.00,VWS V14.01,2013-05-06 00:40:00,
2013-05-05 19:45:00,63.1,47.2,29.94,WNW,292,0.0,0.0,56,0.00,,,0.00,VWS V14.01,2013-05-06 00:45:00,
2013-05-05 19:50:00,63.0,47.0,29.94,WNW,292,0.0,0.0,56,0.00,,,0.00,VWS V14.01,2013-05-06 00:50:00,
2013-05-05 19:55:00,63.0,47.5,29.94,WNW,292,0.0,0.0,57,0.00,,,0.00,VWS V14.01,2013-05-06 00:55:00,
2013-05-05 20:00:00,62.8,47.8,29.94,WNW,292,0.0,0.0,58,0.00,,,0.00,VWS V14.01,2013-05-06 01:00:00,
2013-05-05 20:05:00,62.4,47.9,29.94,WNW,292,0.0,0.0,59,0.00,,,0.00,VWS V14.01,2013-05-06 01:05:00,
2013-05-05 21:16:00,62.4,47.9,29.94,WNW,292,0.0,0.0,59,0.00,,,0.00,VWS V14.01,2013-05-06 02:16:00,
2013-05-05 21:21:00,60.4,54.6,29.97,WNW,292,0.0,0.0,81,0.00,,,0.00,VWS V14.01,2013-05-06 02:21:00,
2013-05-05 21:26:00,60.4,54.6,29.97,WNW,292,0.0,0.0,81,0.00,,,0.00,VWS V14.01,2013-05-06 02:26:00,
2013-05-05 21:31:00,60.4,54.9,29.97,WNW,292,0.0,0.0,82,0.00,,,0.00,VWS V14.01,2013-05-06 02:31:00,
2013-05-05 21:36:00,60.3,54.8,29.97,WNW,292,0.0,0.0,82,0.00,,,0.00,VWS V14.01,2013-05-06 02:36:00,
2013-05-05 21:41:00,60.3,54.8,29.97,WNW,292,0.0,0.0,82,0.00,,,0.00,VWS V14.01,2013-05-06 02:41:00,
2013-05-05 21:46:00,60.1,54.9,29.97,WNW,292,0.0,0.0,83,0.00,,,0.00,VWS V14.01,2013-05-06 02:46:00,
2013-05-05 21:51:00,59.9,54.7,29.97,WNW,292,0.0,0.0,83,0.00,,,0.00,VWS V14.01,2013-05-06 02:51:00,
2013-05-05 21:56:00,59.7,54.6,29.97,WNW,292,0.0,0.0,83,0.00,,,0.00,VWS V14.01,2013-05-06 02:56:00,
2013-05-05 22:01:00,59.5,54.4,29.97,WNW,292,0.0,0.0,83,0.00,,,0.00,VWS V14.01,2013-05-06 03:01:00,
2013-05-05 22:06:00,59.4,54.2,29.97,WNW,292,0.0,0.0,83,0.00,,,0.00,VWS V14.01,2013-05-06 03:06:00,
2013-05-05 22:11:00,59.2,54.0,29.97,WNW,292,0.0,0.0,83,0.00,,,0.00,VWS V14.01,2013-05-06 03:11:00,
2013-05-05 22:16:00,59.0,54.2,29.97,WNW,292,0.0,0.0,84,0.00,,,0.00,VWS V14.01,2013-05-06 03:16:00,
2013-05-05 22:21:00,58.8,54.0,29.97,WNW,292,0.0,0.0,84,0.00,,,0.00,VWS V14.01,2013-05-06 03:21:00,
2013-05-05 22:26:00,58.6,53.8,29.97,WNW,292,0.0,0.0,84,0.00,,,0.00,VWS V14.01,2013-05-06 03:26:00,
2013-05-05 22:31:00,58.6,53.8,29.97,WNW,292,0.0,0.0,84,0.00,,,0.00,VWS V14.01,2013-05-06 03:31:00,
2013-05-05 22:36:00,58.5,54.0,29.97,WNW,292,0.0,0.0,85,0.00,,,0.00,VWS V14.01,2013-05-06 03:36:00,
2013-05-05 22:41:00,58.3,53.8,29.97,WNW,292,0.0,0.0,85,0.00,,,0.00,VWS V14.01,2013-05-06 03:41:00,
2013-05-05 22:46:00,58.1,53.6,29.97,WNW,292,0.0,0.0,85,0.00,,,0.00,VWS V14.01,2013-05-06 03:46:00,
2013-05-05 22:51:00,58.1,53.6,29.97,WNW,292,0.0,0.0,85,0.00,,,0.00,VWS V14.01,2013-05-06 03:51:00,
2013-05-05 22:56:00,58.1,53.6,29.97,WNW,292,0.0,0.0,85,0.00,,,0.00,VWS V14.01,2013-05-06 03:56:00,
2013-05-05 23:01:00,57.9,53.4,29.97,WNW,292,0.0,0.0,85,0.00,,,0.00,VWS V14.01,2013-05-06 04:01:00,
2013-05-05 23:06:00,57.9,53.8,29.97,WNW,292,0.0,0.0,86,0.00,,,0.00,VWS V14.01,2013-05-06 04:06:00,
2013-05-05 23:11:00,57.7,53.6,29.97,WNW,292,0.0,0.0,86,0.00,,,0.00,VWS V14.01,2013-05-06 04:11:00,
2013-05-05 23:16:00,57.7,53.6,29.97,WNW,292,0.0,0.0,86,0.00,,,0.00,VWS V14.01,2013-05-06 04:16:00,
2013-05-05 23:21:00,57.6,53.7,29.97,WNW,292,0.0,0.0,87,0.00,,,0.00,VWS V14.01,2013-05-06 04:21:00,
2013-05-05 23:26:00,57.4,53.5,29.97,WNW,292,0.0,0.0,87,0.00,,,0.00,VWS V14.01,2013-05-06 04:26:00,
2013-05-05 23:31:00,57.2,53.7,29.97,WNW,292,0.0,0.0,88,0.00,,,0.00,VWS V14.01,2013-05-06 04:31:00,
2013-05-05 23:36:00,57.2,53.7,29.97,WNW,292,0.0,0.0,88,0.00,,,0.00,VWS V14.01,2013-05-06 04:36:00,
2013-05-05 23:41:00,56.8,53.6,29.97,WNW,292,0.0,0.0,89,0.00,,,0.00,VWS V14.01,2013-05-06 04:41:00,
2013-05-05 23:46:00,56.8,53.6,29.97,WNW,292,0.0,0.0,89,0.00,,,0.00,VWS V14.01,2013-05-06 04:46:00,
2013-05-05 23:51:00,56.8,53.9,29.97,WNW,292,0.0,0.0,90,0.00,,,0.00,VWS V14.01,2013-05-06 04:51:00,
2013-05-05 23:56:00,56.7,53.8,29.97,WNW,292,0.0,0.0,90,0.00,,,0.00,VWS V14.01,2013-05-06 04:56:00,